Regional Weather Roundup
Issued by NWS Kansas City/Pleasant Hill, MO

Home | Current Version | Previous Version | Graphics & Text | Print | Product List | Glossary Off
Versions: 1 2 3 4 5 6 7 8 9 10 11 12 13 14 15 16 17 18 19 20 21 22 23 24 25 26 27

000
ASUS43 KEAX 230510
RWREAX

WEATHER ROUNDUP FOR EASTERN KANSAS AND NORTHWEST MISSOURI
NATIONAL WEATHER SERVICE KANSAS CITY/PLEASANT HILL MO
1200 AM CDT MON OCT 23 2017

KSZ040-057-103>105-MOZ028-029-037-043-230600-
...KANSAS CITY METROPOLITAN AREA...

CITY           SKY/WX    TMP DP  RH WIND       PRES   REMARKS
K.C. INTL      CLEAR     43  39  86 S9        30.04F
K.C. DOWNTOWN  CLEAR     49  43  80 SW8       30.04F
LEES SUMMIT    CLEAR     49  41  74 S5        30.05F
OLATHE - IXD   CLEAR     46  40  79 S7        30.06F
OLATHE - OJC   CLEAR     46  41  82 S3        30.05F
LAWRENCE       CLEAR     43  41  93 CALM      30.05F

$$

MOZ001>008-011>017-020>025-030>033-038>040-044>046-053-054-230600-
...NORTHERN AND CENTRAL MISSOURI...

CITY           SKY/WX    TMP DP  RH WIND       PRES   REMARKS
ST. JOSEPH     CLEAR     41  41 100 CALM      30.04F
MOSBY          CLEAR     43  43 100 CALM      30.05F
WARRENSBURG    CLEAR     41  39  93 CALM      30.06F
WHITEMAN AFB   CLEAR     45  43  91 S5        30.01F
CLINTON        FOG       41  41 100 CALM      30.07F VSB 1/4
SEDALIA        PTCLDY    48  48 100 S5        30.07S
WARSAW         NOT AVBL
CHILLICOTHE      N/A     45  44  97 CALM      30.05F
KIRKSVILLE     CLOUDY    48  47  96 S3        30.04F

$$

MOZ041-047>049-056>058-063>065-088>090-097-230600-
...EASTERN AND SOUTHERN MISSOURI...

CITY           SKY/WX    TMP DP  RH WIND       PRES   REMARKS
ST. LOUIS INTL LGT RAIN  52  52 100 NW10      30.01F FOG
SPIRIT OF STL  LGT RAIN  53  52  96 NW7       30.00F
COLUMBIA       CLOUDY    51  50  96 CALM      30.05F
JEFFERSON CITY CLOUDY    53  50  89 CALM      30.06F
ROLLA          CLOUDY    50  50 100 NW8       30.05F
OSAGE BEACH    PTCLDY    50  49  96 CALM      30.08S
SPRINGFIELD    CLOUDY    50  49  96 W3        30.07F
BRANSON        CLOUDY    50  48  93 CALM      30.09F
JOPLIN         CLEAR     46  46 100 MISG      30.10S
WEST PLAINS    CLOUDY    50  48  93 W5        30.05F

$$

IAZ060-094-KSZ022-034>040-054-083-096-NEZ052-066-093-230600-
...KANSAS...SOUTHEAST NEBRASKA AND IOWA...

CITY           SKY/WX    TMP DP  RH WIND       PRES   REMARKS
TOPEKA         CLEAR     45  44  97 CALM      30.04F
MANHATTAN      CLEAR     40  37  89 CALM      30.03F
EMPORIA        CLEAR     46  37  71 S9        30.06F
CHANUTE        CLEAR     46  40  79 SW7       30.08F
WICHITA        PTCLDY    47  42  83 S7        30.07F
OMAHA          PTCLDY    50  36  58 SE12      29.96F
LINCOLN        CLOUDY    47  35  63 S7        29.96F
FALLS CITY     CLEAR     51  35  54 S13       30.00F
LAMONI         CLEAR     47  42  83 S7        30.02F
DES MOINES     PTCLDY    49  41  74 S9        30.00F

$$





USA.gov is the U.S. government's official web portal to all federal, state and local government web resources and services.